This is the latest recevied weather packets stored in our database for station/object KD9ZDW. If no packets are shown the sender has not sent any weather packets the latest 10 day(s).
| Time | Temp. | Humidity | Pressure | Rain* | Wind** | Luminosity | Snow |
|---|---|---|---|---|---|---|---|
| 1777321604 | 17.22° C | 91% | 1016.1 hPa | 4.32 mm | - | 16 W/m² | - |
| 1777321301 | 17.22° C | 90% | 1015.9 hPa | 4.83 mm | - | 17 W/m² | - |
| 1777320998 | 17.22° C | 89% | 1015.8 hPa | 3.05 mm | - | 16 W/m² | - |
| 1777320696 | 17.78° C | 89% | 1015.4 hPa | 3.05 mm | - | 16 W/m² | - |
| 1777320393 | 17.78° C | 87% | 1015.5 hPa | 1.78 mm | - | 15 W/m² | - |
| 1777320089 | 18.33° C | 86% | 1015.1 hPa | 1.27 mm | - | 18 W/m² | - |
| 1777319786 | 18.89° C | 83% | 1014.6 hPa | 1.78 mm | - | 21 W/m² | - |
| 1777319483 | 19.44° C | 80% | 1014.5 hPa | 1.78 mm | - | 25 W/m² | - |
| 1777319181 | 19.44° C | 76% | 1014.3 hPa | 0 mm | - | 24 W/m² | - |
| 1777318877 | 20° C | 74% | 1014.3 hPa | 0 mm | - | 24 W/m² | - |
| 1777318574 | 20° C | 73% | 1014.2 hPa | 0 mm | - | 25 W/m² | - |
| 1777318271 | 20.56° C | 70% | 1014.3 hPa | 0 mm | - | 30 W/m² | - |
| 1777317967 | 20.56° C | 69% | 1014.3 hPa | 0 mm | - | 34 W/m² | - |
| 1777317664 | 20.56° C | 67% | 1014.3 hPa | 0 mm | - | 34 W/m² | - |
| 1777317362 | 20.56° C | 66% | 1014.1 hPa | 0 mm | - | 34 W/m² | - |
| 1777317056 | 20.56° C | 66% | 1014.4 hPa | 0 mm | - | 34 W/m² | - |
| 1777316755 | 20.56° C | 67% | 1014.2 hPa | 0 mm | - | 38 W/m² | - |
| 1777316450 | 20.56° C | 66% | 1014.1 hPa | 0 mm | - | 43 W/m² | - |
| 1777316148 | 20.56° C | 66% | 1013.7 hPa | 0 mm | - | 48 W/m² | - |
| 1777315846 | 21.11° C | 65% | 1013.7 hPa | 0 mm | - | 51 W/m² | - |
| 1777315544 | 21.11° C | 66% | 1014 hPa | 0 mm | - | 62 W/m² | - |
| 1777315242 | 21.11° C | 65% | 1014 hPa | 0 mm | - | 59 W/m² | - |
| 1777314939 | 21.11° C | 66% | 1013.7 hPa | 0 mm | - | 69 W/m² | - |
| 1777314634 | 21.11° C | 64% | 1013.6 hPa | 0 mm | - | 67 W/m² | - |
| 1777314332 | 21.11° C | 65% | 1013.6 hPa | 0 mm | - | 70 W/m² | - |
* Rain latest hour (hover to see other rain measurements)
** Current wind speed in m/s (hover to see current wind gust speed)